Regional Weather Roundup
Issued by NWS New Orleans/Baton Rouge, LA

Home | Current Version | Previous Version | Text Only | Print | Product List | Glossary On
Versions: 1 2 3 4 5 6 7 8 9 10 11 12 13 14 15 16 17 18 19 20 21 22 23 24 25 26 27 28 29 30 31 32 33 34 35 36 37 38 39 40 41 42 43 44 45 46 47 48 49 50
000
ASUS44 KLIX 312312
RWRLIX
NEW ORLEANS REGIONAL WEATHER ROUNDUP
NATIONAL WEATHER SERVICE NEW ORLEANS LA
600 PM CDT FRI JUL 31 2015

NOTE: "FAIR" INDICATES FEW OR NO CLOUDS BELOW 12,000 FEET WITH NO
      SIGNIFICANT WEATHER AND/OR OBSTRUCTIONS TO VISIBILITY.
      SKY/WX - SKY CONDITION AND SIGNIFICANT WEATHER.
      TMP - AIR TEMPERATURE.     DP    - DEWPOINT TEMPERATURE.
      RH  - RELATIVE HUMIDITY.   PRES  - PRESSURE.
      HI  - HEAT INDEX.          WCI   - WIND CHILL INDEX.

*  THESE STATIONS ARE NOT NWS OR FAA STATIONS AND ARE NOT UNDER
   NWS QUALITY CONTROL.

LAZ038-040-048-061>063-065>067-069-010000-
SOUTHEAST LOUISIANA

CITY           SKY/WX    TMP DP  RH WIND       PRES   REMARKS
N.O. AUDUBON     N/A     95  78  57 MISG        N/A  HX 112
N.O. INTL ARPT MOSUNNY   92  72  51 N13       29.86F HX  99
N.O. LAKEFRONT SUNNY     92  75  57 N13       29.87F HX 103
N.O. DOWNTOWN*   N/A     93  75  55 NW8       29.87F HX 104
RESERVE*         N/A     94  70  45 NE7       29.88F HX 100
SLIDELL        SUNNY     93  76  57 N7        29.86F HX 105
BATON ROUGE    SUNNY     92  67  43 NE6       29.90F HX  95
BOOTHVILLE     MOSUNNY   89  77  67 NE3       29.87F HX 101
BELLE CHASSE   MOSUNNY   92  75  57 N7        29.85F HX 103
BOGALUSA*        N/A     93  64  37 N9        29.90F
GALLIANO*      NOT AVBL
NEW ROADS*       N/A    N/A N/A N/A NW13      29.91F
GONZALES*        N/A     92  71  50 N8        29.88F HX  97
HAMMOND*       SUNNY     95  63  34 NE5       29.90F HX  96
HOUMA*         MOSUNNY   91  75  59 N7        29.87F HX 102
PORT FOURCHON* PTCLDY    91  75  59 VRB5      29.87F HX 102

$$

MSZ070-080>082-010000-
SOUTHERN MISSISSIPPI

CITY           SKY/WX    TMP DP  RH WIND       PRES   REMARKS
MCCOMB         SUNNY     94  60  32 N9        29.91F
GULFPORT       MOSUNNY   93  75  55 N14       29.84F HX 104
BILOXI         MOSUNNY   92  76  59 N8        29.84F HX 104
PASCAGOULA     MOSUNNY   91  77  63 E9        29.86R HX 104
STENNIS ARPT*  MOSUNNY   93  70  46 N9        29.86F HX  99

$$

COASTAL OBSERVATIONS
LAKE AND NEARSHORE STATIONS

STATION/POSITION TIME  TEMP    WIND        PRES    WAVE
                       AIR SEA DIR/SP/G            HT/PER
                 (UTC) (F)     (DEG/KT/KT) (MB)    (FT/S)
PASCAGOULA       2200   91     160/  4/  7 1010.5
WAVELAND YACHT   2200   88 87  160/  4/  6 1011.7
GRAND ISLE       2200   90 89   70/  2/  5 1012.0
SOUTHWEST PASS   2200   78 87  340/  5/  9 1011.8
NEW CANAL        2200   90 89  360/  7/  9 1011.4
SHELL BEACH      2200   89 89  320/  4/  6 1011.2

OFFSHORE STATIONS

STATION/POSITION TIME  TEMP    WIND        PRES    WAVE
                       AIR SEA DIR/SP/G            HT/PER
                 (UTC) (F)     (DEG/KT/KT) (MB)    (FT/S)
64 S DAUPHIN ISL 2250   86 91  350/  6/  8 1011.1    1/ 4

$$



USA.gov is the U.S. government's official web portal to all federal, state and local government web resources and services.